Location: Borz?cin
(51.1714°N, 19.6030°E)
Time: 08:06:26
(UTC+00:00)

Sich 1 - Pass Details

Date: 19 May 2025
Orbit: 574 x 603 km, 82.5° (Epoch: 17 June)

Event Time Altitude Azimuth Distance (km) Brightness Sun altitude
Rises 20:53:52 0° 358° (N) 2,840 7.8 -15.3°
Reaches altitude 10° 20:56:23 10° 11° (N) 1,928 6.4 -15.4°
Maximum altitude 20:59:59 26° 68° (ENE) 1,174 4.4 -15.7°
Enters shadow 21:02:00 18° 110° (ESE) 1,448 4.6 -15.8°
